COSMOS 2322

Satellite information

Favourite Embed

Satellite Type and Status

PAYLOADIN ORBIT

Key statistics

Satellite COSMOS 2322 at a glance.

Uptime

10946

Days in orbit

Revolutions

≈ 14.1

Per day

Orbit

LEO

Low Earth Orbit

Inclination

71.0

Latest

Satellite identification and parameters

Extended collection of information and parameters for COSMOS 2322.

Object identification

Identified? True

Debris? False

Object name: COSMOS 2322

International designator: 1995-058A

Object number (NORAD): 23704

Object ID (CCSDS): 23704

Country: COMMONWEALTH OF INDEPENDENT STATES (CIS)

Current information (Y/N): Y

RCS size: LARGE

Orbital parameters

Period: 101.855 minutes

Inclination: 70.9845 deg

SMA: 7224.601 km

Apoapsis: 852.868 km

Periapsis: 840.063 km

RAAN: 138.8087 deg

Eccentricy: 0.00088622

Argument of periapsis: 176.4571 deg

Mean anomaly: 183.6615 deg

Mean motion: 14.13780527 rev/day

Mean motion (dot): 0.00000176 rev/day2

B* drag term: 0.0001180981 1/REarth

Two-line elements (TLE)

Creation date: Oct. 19, 2025, 2:20 a.m.

Reference frame: TEME

Reference center: EARTH

Epoch: Oct. 18, 2025, 11 p.m. UTC

TLE line 0: 0 COSMOS 2322

TLE line 1: 1 23704U 95058A 25291.95846593 .00000176 00000-0 11810-3 0 9999

TLE line 2: 2 23704 70.9845 138.8087 0008862 176.4571 183.6615 14.13780527546026

Live tracking on map

Real-time ground track for satellite COSMOS 2322.

In-orbit conjunctions

A list of the most updated potential collisions computed for object COSMOS 2322.

Target Orbit TCA Probability of collision Miss distance Type
COSMOS 1275 DEB LEO 2025-09-30 03:45:50 0.0002359881 655.0 (m) DEBRIS
FENGYUN 1C DEB SSO 2025-06-21 10:12:55 0.0001591522 198.0 (m) DEBRIS
FENGYUN 1C DEB SSO 2025-06-06 08:05:47 0.0001468862 431.0 (m) DEBRIS
CZ-2C DEB SSO 2025-01-06 12:27:55 0.000540573 771.0 (m) DEBRIS
FENGYUN 1C DEB SSO 2024-11-05 19:28:48 0.0001311968 968.0 (m) DEBRIS

Associated space launch

Second generation ELING satellite

COSMOS 2322 was lifted into orbit during the mission ‘Zenit-2 | Tselina-2 17’, on board a Zenit-2 space rocket.

The launch took place on Oct. 31, 1995, 8:19 p.m. from 45/1.

For more information about the launch, click the button.

Launch to space Zenit-2 | Tselina-2 17
Zenit-2 | Tselina-2 17

Agency: N/A

Status: Launch Successful

Launch date: Oct. 31, 1995, 8:19 p.m. UTC

Rocket: Zenit-2

Launch pad: 45/1

Location: Baikonur Cosmodrome, Republic of Kazakhstan

...

Latest news about this satellite

There are no fresh news available about this satellite. Check back as we update our databases every day.


Newsletter sign-up

Weekly statistics, charts and insights to help you stay on top of the space industry.